Weather History for Paris / Le Bourget, France

Change the Weather History Date:

Saturday, October 12, 2013

  Actual Average Record
Temperature  
Mean Temperature 48 °F -  
Max Temperature 53 °F 56 °F - ()
Min Temperature 41 °F 44 °F - ()
Degree Days  
Heating Degree Days 18    
Moisture  
Dew Point 43 °F    
Average Humidity 84    
Maximum Humidity 100    
Minimum Humidity 67    
Precipitation  
Precipitation 0.00 in 0.07 in - ()
Sea Level Pressure  
Sea Level Pressure 30.00 in    
Wind  
Wind Speed 5 mph ()    
Max Wind Speed 15 mph    
Max Gust Speed -    
Visibility 5.6 miles    
Events Rain    
T = Trace of Precipitation, MM = Missing Value Source: Averaged Metar Reports

Daily Weather History Graph

Daily Weather History Graph

Search for Another Location

Airport:

Trip Planner

Search our weather history database for the weather conditions in past years. The results will help you decide how hot, cold, wet, or windy it might be!

Date:

Astronomy

Oct. 12, 2013 Rise Set
Actual Time 8:06 AM CEST 7:06 PM CEST
Civil Twilight 7:34 AM CEST 7:38 PM CEST
Nautical Twilight 6:57 AM CEST 8:14 PM CEST
Astronomical Twilight 6:21 AM CEST 8:51 PM CEST
Moon 3:34 PM CEST (10/12) 12:20 AM CEST (10/12)
Length of Visible Light 12h 03m
Length of Day
11h 00m
First Quarter, 55% of the Moon is Illuminated
Oct 12
First Quarter
Oct 19
Full
Oct 27
Last Quarter
Nov 3
New
Nov 10
First Quarter

Hourly Weather History & Observations

Time (CEST) Temp. Windchill Dew Point Humidity Pressure Visibility Wind Dir Wind Speed Gust Speed Precip Events Conditions
12:00 AM 46.4 °F 45.2 °F 42.8 °F 87% 29.95 in 6.2 mi NE 3.5 mph - N/A Rain Light Rain
12:30 AM 46.4 °F 45.2 °F 42.8 °F 87% 29.95 in 6.2 mi NNE 3.5 mph - N/A Rain Light Rain
1:00 AM 46.4 °F 45.2 °F 44.6 °F 93% 29.95 in 5.6 mi NNE 3.5 mph - N/A Rain Light Rain
1:30 AM 46.4 °F 45.2 °F 44.6 °F 93% 29.95 in 4.3 mi NNE 3.5 mph - N/A Rain Light Rain
2:00 AM 46.4 °F 45.2 °F 42.8 °F 87% 29.95 in 4.3 mi NNE 3.5 mph - N/A   Unknown
2:30 AM 44.6 °F - 42.8 °F 93% 29.95 in 3.7 mi North 2.3 mph - N/A   Unknown
3:00 AM 44.6 °F 43.1 °F 41.0 °F 87% 29.95 in 3.7 mi North 3.5 mph - N/A   Unknown
3:30 AM 42.8 °F 41.1 °F 41.0 °F 93% 29.95 in 3.1 mi NE 3.5 mph - N/A   Scattered Clouds
4:00 AM 42.8 °F 41.1 °F 42.8 °F 100% 29.95 in 3.7 mi NE 3.5 mph - N/A   Mostly Cloudy
4:30 AM 44.6 °F 41.4 °F 42.8 °F 93% 29.95 in 3.7 mi NE 5.8 mph - N/A   Overcast
5:00 AM 42.8 °F 40.1 °F 42.8 °F 100% 29.95 in 4.3 mi ENE 4.6 mph - N/A   Mostly Cloudy
5:30 AM 44.6 °F 41.4 °F 42.8 °F 93% 29.95 in 4.3 mi ENE 5.8 mph - N/A   Overcast
6:00 AM 44.6 °F 41.4 °F 42.8 °F 93% 29.95 in 4.3 mi East 5.8 mph - N/A   Overcast
6:30 AM 44.6 °F 41.4 °F 44.6 °F 100% 29.95 in 5.0 mi ENE 5.8 mph - N/A   Mostly Cloudy
7:00 AM 46.4 °F 42.9 °F 44.6 °F 93% 29.95 in 6.2 mi East 6.9 mph - N/A   Overcast
7:30 AM 46.4 °F 41.5 °F 44.6 °F 93% 29.95 in 6.2 mi ENE 10.4 mph - N/A   Overcast
8:00 AM 46.4 °F 41.9 °F 44.6 °F 93% 29.98 in 6.2 mi East 9.2 mph - N/A   Overcast
8:30 AM 46.4 °F 41.9 °F 44.6 °F 93% 29.98 in 6.2 mi East 9.2 mph - N/A   Overcast
9:00 AM 46.4 °F 41.1 °F 44.6 °F 93% 29.98 in 6.2 mi East 11.5 mph - N/A   Overcast
9:30 AM 46.4 °F 41.1 °F 44.6 °F 93% 29.98 in 6.2 mi East 11.5 mph - N/A   Overcast
10:00 AM 46.4 °F 41.5 °F 44.6 °F 93% 30.01 in 6.2 mi East 10.4 mph - N/A   Overcast
10:30 AM 48.2 °F - 44.6 °F 87% 30.01 in 6.2 mi East 12.7 mph - N/A   Overcast
11:00 AM 48.2 °F - 44.6 °F 87% 30.01 in 6.2 mi East 11.5 mph - N/A   Overcast
11:30 AM 50.0 °F - 46.4 °F 87% 30.01 in 6.2 mi East 15.0 mph - N/A   Partly Cloudy
12:00 PM 51.8 °F - 44.6 °F 76% 30.04 in 6.2 mi East 11.5 mph - N/A   Mostly Cloudy
12:30 PM 50.0 °F - 44.6 °F 82% 30.04 in 6.2 mi East 11.5 mph - N/A   Mostly Cloudy
1:00 PM 51.8 °F - 44.6 °F 76% 30.04 in 6.2 mi East 11.5 mph - N/A   Mostly Cloudy
1:30 PM 51.8 °F - 42.8 °F 71% 30.04 in 6.2 mi East 9.2 mph - N/A   Overcast
2:00 PM 51.8 °F - 42.8 °F 71% 30.04 in 6.2 mi East 9.2 mph - N/A   Overcast
2:30 PM 51.8 °F - 42.8 °F 71% 30.04 in 6.2 mi East 8.1 mph - N/A   Mostly Cloudy
3:00 PM 51.8 °F - 42.8 °F 71% 30.04 in 6.2 mi ENE 10.4 mph - N/A   Overcast
3:30 PM 51.8 °F - 42.8 °F 71% 30.04 in 6.2 mi ENE 8.1 mph - N/A   Mostly Cloudy
4:00 PM 53.6 °F - 42.8 °F 67% 30.01 in 6.2 mi ENE 6.9 mph - N/A   Mostly Cloudy
4:30 PM 53.6 °F - 42.8 °F 67% 30.01 in 6.2 mi East 5.8 mph - N/A   Mostly Cloudy
5:00 PM 51.8 °F - 41.0 °F 67% 30.01 in 6.2 mi NE 6.9 mph - N/A   Scattered Clouds
5:30 PM 51.8 °F - 42.8 °F 71% 30.01 in 6.2 mi NE 8.1 mph - N/A   Scattered Clouds
6:00 PM 51.8 °F - 42.8 °F 71% 30.01 in 6.2 mi ENE 6.9 mph - N/A   Unknown
6:30 PM 51.8 °F - 41.0 °F 67% 30.04 in 6.2 mi NE 6.9 mph - N/A   Unknown
7:00 PM 50.0 °F - 41.0 °F 71% 30.04 in 6.2 mi NE 4.6 mph - N/A   Unknown
7:30 PM 48.2 °F - 41.0 °F 76% 30.04 in 6.2 mi NE 3.5 mph - N/A   Partly Cloudy
8:00 PM 48.2 °F - 41.0 °F 76% 30.04 in 6.2 mi NNE 3.5 mph - N/A   Partly Cloudy
8:30 PM 48.2 °F - 41.0 °F 76% 30.04 in 6.2 mi NNE 3.5 mph - N/A   Unknown
9:00 PM 46.4 °F - 41.0 °F 81% 30.04 in 6.2 mi WNW 2.3 mph - N/A   Unknown
9:30 PM 44.6 °F - 39.2 °F 81% 30.04 in 6.2 mi Calm Calm - N/A   Unknown
10:00 PM 44.6 °F - 41.0 °F 87% 30.06 in 5.6 mi Calm Calm - N/A   Unknown
10:30 PM 42.8 °F - 39.2 °F 87% 30.06 in 3.7 mi Variable 2.3 mph - N/A   Unknown
11:00 PM 42.8 °F - 41.0 °F 93% 30.06 in 4.3 mi Calm Calm - N/A   Overcast
11:30 PM 41.0 °F - 39.2 °F 93% 30.06 in 5.6 mi NE 2.3 mph - N/A   Overcast